ONEWEB-0538, 56047

Orbit data source: Space-Track

ONEWEB-0538, 56047 is a payload satellite owned by One Web (NAA) (UK) in LEO that was launched on Sun, 26 Mar 2023 UTC via a LVM3 launch vehicle from the Sirharikota (SRI). Payloads include a variety of satellites, spacecraft, and rockets equipped with specific instruments for various scientific and technological missions. These include communications satellites like Starlink; space stations such as the ISS; scientific satellites like the Hubble; Earth observation satellites from companies like Planet Labs, Umbra, and HawkEye 360; GPS; miniature CubeSats for education and research; and military/defense satellites.

Loading next visibility...
ONEWEB-0538 details
Identifier
56047, 2023-043B
Orbit
LEO
Last TLE update18 hours ago
Origin
Flag of UKOne Web (NAA) (UK)
ManufacturerOne Web
MissionOperational Commercial Communications
Bus & MotorARROW, Unknown motor
Mass148 kg wet, ~140 kg dry
Launch date (UTC)
2023-03-26 (2 years ago)
Launch vehicle
LVM3
Launch site
Sirharikota (SRI)
Object type
Payload
Rocket body
Debris
Shape & HBRTrap Box + 2 Pan, 5 m
Radar Cross Section2.032 m², Large (>1 m²)

Expand to show TLE details & history

TLE from 18 hours ago
0 ONEWEB-0538
1 56047U 23043B   25014.88899107  .00000006  00000-0 -18033-4 0  9992
2 56047  87.9112 332.0528 0001931  89.7139 270.4213 13.16592952 91682
Epoch: 2025-01-14T21:20Z
Definitive object data (Epoch: 2025-01-14T21:20:08.828Z)
Latitude-0.00004°
Longitude-102.5732°
Altitude1,200.648 km
Speed7.254 km/s
True Right ascension22h 08m 12s
True Declination0° 00' 00"
Sunlit
Object was in daylight at TLE epoch
Visualization TLE readout
Latitude-79.63906°
Longitude88.72838°
Altitude1,227.35 km
Speed7.24 km/s
Apparent Right ascension04h 49m 49s
Apparent Declination-67° 54' 12"
Sunlit
Object is in daylight
Visualization observer readout
Local Sidereal Time15:44:47
Azimuth192.401° SSW
Elevation-60.635°
Doppler factor1
Orbital elements
Apogee altitude1,196.334 km
Perigee altitude1,193.41 km
Semi-major axis7,573.009 km
Eccentricity0.0001931
Inclination87.9112°
RAAN332.0528°
Arg. of periapsis89.7139°
True anomaly270.39917°
Mean anomaly270.4213°
Eccentric anomaly270.41024°
Mean motion3.29337 °/min
BSTAR-0.000018033
Orbital period109.31 mins
Loading maneuver chart data...
Loading historical data...
Loading historical data...
Loading historical data...
Loading historical data...
Loading historical data...
Loading historical data...
Loading historical data...

ONEWEB-0538 Visibility forecast

Observer location: undefined°, undefined

Span
Click to sort rows by Start time (UTC) header in descending order
Start Az.
Max El. time (UTC)
Max El. Az.
Max El.
End time (UTC)
End Az.
13 mins2025-01-15 21:08:59.618Z166.33° S2025-01-15 21:14:59.618Z84.477° E43.088°2025-01-15 21:21:59.618Z5.708° NNE
9 mins2025-01-15 23:00:59.618Z246.445° WSW2025-01-15 23:04:59.618Z284.394° WNW19.234°2025-01-15 23:09:59.618Z329.479° NNW
12 mins2025-01-16 08:35:59.618Z12.213° NNE2025-01-16 08:41:59.618Z88.386° E38.534°2025-01-16 08:47:59.618Z158.429° S
9 mins2025-01-16 10:26:59.618Z324.992° NNW2025-01-16 10:30:59.618Z281.301° WNW24.525°2025-01-16 10:35:59.618Z232.575° WSW
|